MTN001 KDEN-KBIS

Flight info

Callsign MTN001
Flight time 1h 13m
Altitude 33000
Route HHOTH2 SAABR DPR
Aircraft CRJ7/M-SDFGIRWY/S

Departure

Time 2026-05-04 13:33
Airport Denver International Airport (KDEN)

Arrival

Time 2026-05-04 14:46
Airport Bismarck Municipal Airport (KBIS)
Time Latitude Longitude Altitude Speed Heading
2026-05-04 13:16 39.85750 -104.66591 5364 ft 0 kts
2026-05-04 13:25 39.85735 -104.66591 5363 ft 4 kts
2026-05-04 13:25 39.85708 -104.66592 5362 ft 4 kts
2026-05-04 13:25 39.85690 -104.66592 5363 ft 1 kts
2026-05-04 13:27 39.85692 -104.66591 5363 ft 2 kts 27°
2026-05-04 13:27 39.85693 -104.66526 5363 ft 10 kts 99°
2026-05-04 13:27 39.85683 -104.66436 5364 ft 10 kts 94°
2026-05-04 13:28 39.85679 -104.66336 5364 ft 15 kts 91°
2026-05-04 13:28 39.85757 -104.66231 5364 ft 24 kts
2026-05-04 13:28 39.85937 -104.66230 5362 ft 25 kts
2026-05-04 13:28 39.86110 -104.66229 5364 ft 24 kts
2026-05-04 13:29 39.86275 -104.66226 5364 ft 23 kts
2026-05-04 13:29 39.86415 -104.66224 5364 ft 22 kts
2026-05-04 13:29 39.86544 -104.66222 5363 ft 22 kts
2026-05-04 13:29 39.86692 -104.66221 5364 ft 21 kts
2026-05-04 13:30 39.86833 -104.66219 5364 ft 20 kts
2026-05-04 13:30 39.86970 -104.66218 5364 ft 19 kts
2026-05-04 13:30 39.87100 -104.66217 5363 ft 18 kts
2026-05-04 13:30 39.87226 -104.66215 5364 ft 18 kts
2026-05-04 13:31 39.87346 -104.66214 5364 ft 17 kts
2026-05-04 13:31 39.87479 -104.66213 5364 ft 21 kts
2026-05-04 13:31 39.87626 -104.66212 5364 ft 21 kts
2026-05-04 13:31 39.87752 -104.66170 5364 ft 19 kts 63°
2026-05-04 13:32 39.87758 -104.65852 5363 ft 64 kts 91°
2026-05-04 13:32 39.87753 -104.64986 5363 ft 125 kts 90°
2026-05-04 13:32 39.87744 -104.63630 5391 ft 167 kts 91°
2026-05-04 13:32 39.87807 -104.62111 5956 ft 170 kts 82°
2026-05-04 13:33 39.88078 -104.60599 6533 ft 175 kts 74°
2026-05-04 13:33 39.88425 -104.59006 6911 ft 195 kts 75°
2026-05-04 13:33 39.88741 -104.57190 7282 ft 219 kts 77°
2026-05-04 13:33 39.89081 -104.55128 7729 ft 244 kts 77°
2026-05-04 13:34 39.89454 -104.52914 8330 ft 262 kts 76°
2026-05-04 13:34 39.89886 -104.50521 8775 ft 278 kts 75°
2026-05-04 13:34 39.90341 -104.48026 9386 ft 288 kts 76°
2026-05-04 13:34 39.90809 -104.45403 9691 ft 310 kts 76°
2026-05-04 13:35 39.91553 -104.42726 10176 ft 316 kts 54°
2026-05-04 13:35 39.95259 -104.39663 11047 ft 335 kts 14°
2026-05-04 13:35 39.97563 -104.39056 11617 ft 340 kts
2026-05-04 13:36 39.99922 -104.38700 12325 ft 342 kts
2026-05-04 13:36 40.02297 -104.38384 13037 ft 345 kts
2026-05-04 13:36 40.04689 -104.38346 13704 ft 344 kts 347°
2026-05-04 13:36 40.06194 -104.38983 14115 ft 343 kts 335°
2026-05-04 13:37 40.08995 -104.40922 14923 ft 346 kts 325°
2026-05-04 13:37 40.10955 -104.42757 15523 ft 348 kts 322°
2026-05-04 13:37 40.12885 -104.44701 16112 ft 351 kts 321°
2026-05-04 13:37 40.14192 -104.46031 16501 ft 353 kts 321°
2026-05-04 13:38 40.16150 -104.48003 17080 ft 356 kts 322°
2026-05-04 13:38 40.18248 -104.49740 17614 ft 361 kts 337°
2026-05-04 13:38 40.20698 -104.50380 18149 ft 368 kts 352°
2026-05-04 13:38 40.23272 -104.50442 18623 ft 373 kts
2026-05-04 13:39 40.25871 -104.50090 19078 ft 377 kts
2026-05-04 13:39 40.28484 -104.49594 19524 ft 381 kts
2026-05-04 13:39 40.31114 -104.49088 19948 ft 384 kts
2026-05-04 13:39 40.33771 -104.48627 20387 ft 386 kts
2026-05-04 13:40 40.36454 -104.48232 20800 ft 389 kts
2026-05-04 13:40 40.39155 -104.47843 21222 ft 392 kts
2026-05-04 13:40 40.41874 -104.47449 21624 ft 394 kts
2026-05-04 13:40 40.44609 -104.47055 22023 ft 397 kts
2026-05-04 13:41 40.47365 -104.46654 22409 ft 399 kts
2026-05-04 13:41 40.50141 -104.46255 22797 ft 402 kts
2026-05-04 13:41 40.52932 -104.45849 23159 ft 404 kts
2026-05-04 13:42 40.58519 -104.45034 23794 ft 408 kts
2026-05-04 13:42 40.61354 -104.44619 24086 ft 410 kts
2026-05-04 13:42 40.64197 -104.44200 24361 ft 412 kts
2026-05-04 13:42 40.67033 -104.43411 24621 ft 422 kts 14°
2026-05-04 13:43 40.69763 -104.41919 24867 ft 428 kts 21°
2026-05-04 13:43 40.72427 -104.40106 25115 ft 432 kts 23°
2026-05-04 13:43 40.75082 -104.38233 25351 ft 434 kts 23°
2026-05-04 13:43 40.77761 -104.36376 25604 ft 435 kts 22°
2026-05-04 13:44 40.80478 -104.34591 25846 ft 437 kts 21°
2026-05-04 13:44 40.83185 -104.32828 26086 ft 439 kts 21°
2026-05-04 13:44 40.85923 -104.31033 26320 ft 441 kts 21°
2026-05-04 13:44 40.88678 -104.29225 26551 ft 442 kts 21°
2026-05-04 13:45 40.91441 -104.27410 26774 ft 444 kts 21°
2026-05-04 13:45 40.94213 -104.25585 26993 ft 446 kts 21°
2026-05-04 13:45 40.96995 -104.23756 27214 ft 447 kts 21°
2026-05-04 13:45 40.99792 -104.21912 27427 ft 449 kts 21°
2026-05-04 13:46 41.02595 -104.20063 27625 ft 450 kts 21°
2026-05-04 13:46 41.05373 -104.18227 27826 ft 452 kts 21°
2026-05-04 13:46 41.08195 -104.16375 28020 ft 452 kts 19°
2026-05-04 13:46 41.11134 -104.14977 28196 ft 446 kts 10°
2026-05-04 13:47 41.14147 -104.14023 28392 ft 444 kts
2026-05-04 13:47 41.17185 -104.13268 28582 ft 444 kts
2026-05-04 13:47 41.20237 -104.12529 28759 ft 446 kts
2026-05-04 13:47 41.23300 -104.11716 28934 ft 448 kts
2026-05-04 13:48 41.26317 -104.10841 29099 ft 450 kts
2026-05-04 13:48 41.29378 -104.09936 29250 ft 451 kts
2026-05-04 13:48 41.32454 -104.09041 29406 ft 452 kts
2026-05-04 13:48 41.35534 -104.08167 29550 ft 453 kts
2026-05-04 13:49 41.38628 -104.07298 29702 ft 454 kts
2026-05-04 13:49 41.41723 -104.06425 29839 ft 455 kts
2026-05-04 13:49 41.44827 -104.05542 29968 ft 456 kts
2026-05-04 13:49 41.47898 -104.04660 30439 ft 447 kts
2026-05-04 13:50 41.50926 -104.03787 30794 ft 442 kts
2026-05-04 13:50 41.53892 -104.02939 31003 ft 441 kts
2026-05-04 13:50 41.56893 -104.02085 31190 ft 440 kts
2026-05-04 13:50 41.59895 -104.01231 31370 ft 440 kts
2026-05-04 13:51 41.62883 -104.00374 31537 ft 439 kts
2026-05-04 13:51 41.65877 -103.99512 31698 ft 439 kts
2026-05-04 13:51 41.68864 -103.98653 31881 ft 438 kts
2026-05-04 13:51 41.71842 -103.97798 32062 ft 437 kts
2026-05-04 13:52 41.77748 -103.96036 32374 ft 439 kts 11°
2026-05-04 13:52 41.80651 -103.94711 32522 ft 442 kts 15°
2026-05-04 13:52 41.83510 -103.93154 32677 ft 444 kts 18°
2026-05-04 13:53 41.86312 -103.91368 32747 ft 448 kts 21°
2026-05-04 13:53 41.91911 -103.87616 32794 ft 449 kts 21°
2026-05-04 13:54 42.00317 -103.82107 32803 ft 447 kts 20°
2026-05-04 13:55 42.08687 -103.76680 32787 ft 446 kts 20°
2026-05-04 13:55 42.17070 -103.71232 32759 ft 445 kts 20°
2026-05-04 13:56 42.22638 -103.67602 32739 ft 444 kts 20°
2026-05-04 13:57 42.30951 -103.62171 32743 ft 445 kts 21°
2026-05-04 13:58 42.42118 -103.54843 32748 ft 446 kts 21°
2026-05-04 13:58 42.50485 -103.49340 32746 ft 447 kts 21°
2026-05-04 13:59 42.56093 -103.45643 32754 ft 448 kts 21°
2026-05-04 14:00 42.64508 -103.40074 32780 ft 448 kts 21°
2026-05-04 14:00 42.72891 -103.34520 32836 ft 449 kts 21°
2026-05-04 14:01 42.78518 -103.30778 32860 ft 449 kts 21°
2026-05-04 14:02 42.86951 -103.25158 32878 ft 449 kts 22°
2026-05-04 14:02 42.92522 -103.21431 32877 ft 449 kts 22°
2026-05-04 14:03 42.98152 -103.17659 32871 ft 449 kts 22°
2026-05-04 14:03 43.03761 -103.13902 32861 ft 449 kts 22°
2026-05-04 14:04 43.12144 -103.08260 32843 ft 449 kts 22°
2026-05-04 14:04 43.17769 -103.04468 32836 ft 449 kts 22°
2026-05-04 14:05 43.26181 -102.98780 32832 ft 450 kts 22°
2026-05-04 14:06 43.31792 -102.94978 32829 ft 450 kts 22°
2026-05-04 14:06 43.37370 -102.91185 32835 ft 450 kts 22°
2026-05-04 14:07 43.42984 -102.87367 32837 ft 450 kts 21°
2026-05-04 14:07 43.48593 -102.83543 32824 ft 450 kts 21°
2026-05-04 14:08 43.54211 -102.79711 32831 ft 450 kts 21°
2026-05-04 14:08 43.59821 -102.75862 32832 ft 450 kts 21°
2026-05-04 14:09 43.68246 -102.70075 32834 ft 451 kts 21°
2026-05-04 14:10 43.76654 -102.64283 32836 ft 451 kts 21°
2026-05-04 14:10 43.82283 -102.60397 32841 ft 452 kts 21°
2026-05-04 14:11 43.87920 -102.56494 32837 ft 452 kts 20°
2026-05-04 14:11 43.96383 -102.50621 32840 ft 453 kts 20°
2026-05-04 14:12 44.02019 -102.46700 32836 ft 453 kts 20°
2026-05-04 14:13 44.10444 -102.40822 32835 ft 453 kts 20°
2026-05-04 14:13 44.16090 -102.36870 32836 ft 453 kts 20°
2026-05-04 14:14 44.21728 -102.32920 32833 ft 453 kts 20°
2026-05-04 14:14 44.30187 -102.26974 32832 ft 453 kts 20°
2026-05-04 14:15 44.41422 -102.19049 32832 ft 454 kts 20°
2026-05-04 14:16 44.49888 -102.13050 32831 ft 454 kts 19°
2026-05-04 14:17 44.58369 -102.07026 32829 ft 455 kts 19°
2026-05-04 14:18 44.66804 -102.01014 32831 ft 456 kts 19°
2026-05-04 14:19 44.78138 -101.92905 32832 ft 457 kts 19°
2026-05-04 14:19 44.83777 -101.88856 32830 ft 457 kts 19°
2026-05-04 14:20 44.89456 -101.84769 32828 ft 459 kts 19°
2026-05-04 14:20 44.95161 -101.80656 32830 ft 460 kts 19°
2026-05-04 14:21 45.03744 -101.74447 32829 ft 463 kts 19°
2026-05-04 14:21 45.09456 -101.70293 32830 ft 464 kts 19°
2026-05-04 14:22 45.15206 -101.66038 32830 ft 466 kts 19°
2026-05-04 14:22 45.20961 -101.61775 32830 ft 467 kts 19°
2026-05-04 14:23 45.26772 -101.57467 32013 ft 481 kts 19°
2026-05-04 14:23 45.29749 -101.55249 31513 ft 486 kts 19°
2026-05-04 14:23 45.32756 -101.53000 31025 ft 489 kts 19°
2026-05-04 14:24 45.35780 -101.50745 30543 ft 488 kts 19°
2026-05-04 14:24 45.38755 -101.48518 30069 ft 478 kts 19°
2026-05-04 14:24 45.41669 -101.46339 29536 ft 468 kts 19°
2026-05-04 14:24 45.44526 -101.44200 28982 ft 460 kts 19°
2026-05-04 14:25 45.47305 -101.42118 28453 ft 453 kts 19°
2026-05-04 14:25 45.52825 -101.37977 27376 ft 443 kts 18°
2026-05-04 14:25 45.55539 -101.35941 26858 ft 438 kts 18°
2026-05-04 14:26 45.57327 -101.34592 26522 ft 436 kts 18°
2026-05-04 14:26 45.59996 -101.32584 26016 ft 432 kts 18°
2026-05-04 14:26 45.62647 -101.30587 25519 ft 429 kts 18°
2026-05-04 14:26 45.65278 -101.28601 25029 ft 425 kts 18°
2026-05-04 14:27 45.67892 -101.26626 24552 ft 422 kts 18°
2026-05-04 14:27 45.70481 -101.24668 24081 ft 420 kts 18°
2026-05-04 14:27 45.73064 -101.22714 23622 ft 418 kts 18°
2026-05-04 14:27 45.75624 -101.20771 23127 ft 416 kts 17°
2026-05-04 14:28 45.78154 -101.18854 22589 ft 414 kts 17°
2026-05-04 14:28 45.80697 -101.16920 22059 ft 413 kts 17°
2026-05-04 14:28 45.83230 -101.14995 21535 ft 411 kts 17°
2026-05-04 14:28 45.85758 -101.13076 21020 ft 410 kts 17°
2026-05-04 14:29 45.90788 -101.09241 20023 ft 408 kts 17°
2026-05-04 14:29 45.95757 -101.05450 19059 ft 406 kts 17°
2026-05-04 14:30 45.98248 -101.03545 18580 ft 405 kts 17°
2026-05-04 14:30 46.00740 -101.01637 18115 ft 404 kts 17°
2026-05-04 14:30 46.05611 -100.97895 17058 ft 388 kts 17°
2026-05-04 14:31 46.07939 -100.96106 16540 ft 381 kts 17°
2026-05-04 14:31 46.12527 -100.92566 15534 ft 367 kts 17°
2026-05-04 14:32 46.16955 -100.89145 14569 ft 355 kts 17°
2026-05-04 14:32 46.19122 -100.87471 14082 ft 350 kts 18°
2026-05-04 14:32 46.21255 -100.85819 13604 ft 345 kts 18°
2026-05-04 14:32 46.23325 -100.84215 13076 ft 340 kts 18°
2026-05-04 14:33 46.25398 -100.82615 12538 ft 336 kts 18°
2026-05-04 14:33 46.27449 -100.81035 12014 ft 332 kts 19°
2026-05-04 14:33 46.29456 -100.79470 11480 ft 321 kts 18°
2026-05-04 14:33 46.31388 -100.77970 10963 ft 309 kts 19°
2026-05-04 14:34 46.33249 -100.76524 10453 ft 299 kts 18°
2026-05-04 14:34 46.35050 -100.75122 9987 ft 289 kts 19°
2026-05-04 14:34 46.36803 -100.73770 9522 ft 281 kts 19°
2026-05-04 14:34 46.38502 -100.72440 9034 ft 273 kts 19°
2026-05-04 14:35 46.40154 -100.71158 8575 ft 266 kts 19°
2026-05-04 14:35 46.41756 -100.69908 8167 ft 257 kts 19°
2026-05-04 14:35 46.43287 -100.68713 7776 ft 249 kts 18°
2026-05-04 14:35 46.44797 -100.67560 7401 ft 240 kts 19°
2026-05-04 14:36 46.46233 -100.66453 7049 ft 225 kts 19°
2026-05-04 14:36 46.47581 -100.65396 6702 ft 215 kts 19°
2026-05-04 14:36 46.48873 -100.64383 6359 ft 207 kts 19°
2026-05-04 14:36 46.50121 -100.63405 5972 ft 201 kts 19°
2026-05-04 14:37 46.51338 -100.62461 5570 ft 195 kts 19°
2026-05-04 14:37 46.52498 -100.61575 5206 ft 184 kts 19°
2026-05-04 14:37 46.53591 -100.60735 4829 ft 173 kts 20°
2026-05-04 14:37 46.54637 -100.59925 4437 ft 173 kts 20°
2026-05-04 14:38 46.55680 -100.59108 4042 ft 166 kts 21°
2026-05-04 14:38 46.56669 -100.58334 3730 ft 161 kts 20°
2026-05-04 14:38 46.57649 -100.57567 3595 ft 156 kts 20°
2026-05-04 14:38 46.58579 -100.56825 3545 ft 150 kts 20°
2026-05-04 14:39 46.59499 -100.56084 3507 ft 151 kts 20°
2026-05-04 14:39 46.60423 -100.55352 3493 ft 151 kts 20°
2026-05-04 14:39 46.61351 -100.54759 3475 ft 143 kts
2026-05-04 14:40 46.63025 -100.55916 3491 ft 134 kts 324°
2026-05-04 14:40 46.63758 -100.56756 3483 ft 134 kts 319°
2026-05-04 14:40 46.64463 -100.57680 3490 ft 139 kts 318°
2026-05-04 14:40 46.65184 -100.58660 3503 ft 144 kts 318°
2026-05-04 14:41 46.65931 -100.59675 3519 ft 149 kts 319°
2026-05-04 14:41 46.66704 -100.60704 3509 ft 150 kts 319°
2026-05-04 14:41 46.68171 -100.62633 3486 ft 128 kts 319°
2026-05-04 14:42 46.69380 -100.64215 3472 ft 113 kts 319°
2026-05-04 14:42 46.69961 -100.64980 3491 ft 115 kts 320°
2026-05-04 14:42 46.70573 -100.65779 3362 ft 118 kts 319°
2026-05-04 14:43 46.71171 -100.66572 3181 ft 115 kts 319°
2026-05-04 14:43 46.71778 -100.67381 3009 ft 119 kts 318°
2026-05-04 14:43 46.72389 -100.68188 2859 ft 118 kts 318°
2026-05-04 14:43 46.73004 -100.69007 2693 ft 121 kts 318°
2026-05-04 14:44 46.73628 -100.69853 2516 ft 123 kts 318°
2026-05-04 14:44 46.74240 -100.70669 2340 ft 119 kts 319°
2026-05-04 14:44 46.74842 -100.71470 2158 ft 115 kts 319°
2026-05-04 14:44 46.75426 -100.72246 1967 ft 113 kts 318°
2026-05-04 14:45 46.76009 -100.73021 1855 ft 114 kts 317°
2026-05-04 14:45 46.76613 -100.73818 1693 ft 119 kts 317°
2026-05-04 14:45 46.77171 -100.74573 1665 ft 99 kts 320°
2026-05-04 14:45 46.77586 -100.75104 1654 ft 51 kts 317°
2026-05-04 14:46 46.77742 -100.75307 1663 ft 17 kts 319°
2026-05-04 14:46 46.77843 -100.75475 1660 ft 22 kts 288°
2026-05-04 14:46 46.77783 -100.75647 1664 ft 20 kts 219°
2026-05-04 14:46 46.77677 -100.75604 1663 ft 18 kts 141°
2026-05-04 14:47 46.77593 -100.75554 1657 ft 10 kts 208°
2026-05-04 14:47 46.77574 -100.75587 1671 ft 7 kts 257°
2026-05-04 14:47 46.77544 -100.75666 1663 ft 7 kts 231°
2026-05-04 14:47 46.77533 -100.75689 1665 ft 2 kts 233°
2026-05-04 14:48 46.77532 -100.75690 1665 ft 0 kts 233°